Weather History for Niagara Falls, NY

Change the Weather History Date:

Friday, March 29, 2013

  Actual Average Record
Temperature  
Mean Temperature 41 °F -  
Max Temperature 50 °F 44 °F 66 °F (2004)
Min Temperature 32 °F 30 °F 19 °F (2008)
Degree Days  
Heating Degree Days 24    
Moisture  
Dew Point 29 °F    
Average Humidity 71    
Maximum Humidity 85    
Minimum Humidity 39    
Precipitation  
Precipitation 0.00 in - - ()
Sea Level Pressure  
Sea Level Pressure 30.21 in    
Wind  
Wind Speed 6 mph (WSW)    
Max Wind Speed 17 mph    
Max Gust Speed 22 mph    
Visibility 10 miles    
Events Rain , Snow    
Averages and records for this station are not official NWS values.
T = Trace of Precipitation, MM = Missing Value Source: NWS Daily Summary

Daily Weather History Graph

Daily Weather History Graph

Search for Another Location

Airport:

Trip Planner

Search our weather history database for the weather conditions in past years. The results will help you decide how hot, cold, wet, or windy it might be!

Date:

Astronomy

Mar. 29, 2013 Rise Set
Actual Time 7:02 AM EDT 7:38 PM EDT
Civil Twilight 6:34 AM EDT 8:07 PM EDT
Nautical Twilight 6:00 AM EDT 8:41 PM EDT
Astronomical Twilight 5:25 AM EDT 9:16 PM EDT
Moon 10:42 PM EDT 8:05 AM EDT
Length of Visible Light 13h 33m
Length of Day
12h 36m
Waning Gibbous, 93% of the Moon is Illuminated
Mar 29
Waning Gibbous
Apr 3
Last Quarter
Apr 10
New
Apr 18
First Quarter
Apr 25
Full

Hourly Weather History & Observations

Time (EDT) Temp. Windchill Dew Point Humidity Pressure Visibility Wind Dir Wind Speed Gust Speed Precip Events Conditions
12:53 AM 36.0 °F 32.1 °F 30.9 °F 82% 30.24 in 10.0 mi West 4.6 mph - 0.00 in   Overcast
1:53 AM 36.0 °F 33.3 °F 30.9 °F 82% 30.23 in 10.0 mi West 3.5 mph - N/A   Overcast
2:53 AM 35.1 °F 30.1 °F 30.9 °F 85% 30.24 in 10.0 mi West 5.8 mph - N/A   Overcast
3:53 AM 35.1 °F 31.0 °F 30.9 °F 85% 30.23 in 10.0 mi SW 4.6 mph - N/A   Overcast
4:53 AM 35.1 °F 31.0 °F 30.0 °F 82% 30.23 in 10.0 mi WSW 4.6 mph - N/A   Overcast
5:53 AM 35.1 °F 31.0 °F 30.0 °F 82% 30.23 in 10.0 mi WSW 4.6 mph - N/A   Overcast
6:53 AM 34.0 °F 29.8 °F 30.0 °F 85% 30.24 in 10.0 mi WSW 4.6 mph - N/A   Overcast
7:00 AM 35.6 °F 30.7 °F 30.2 °F 81% 30.19 in 10.0 mi WSW 5.8 mph - N/A   Mostly Cloudy
7:31 AM 35.6 °F 31.7 °F 30.2 °F 81% 30.20 in 10.0 mi WSW 4.6 mph - 0.00 in Snow Light Snow
7:53 AM 35.1 °F 31.0 °F 30.9 °F 85% 30.24 in 9.0 mi WSW 4.6 mph - 0.00 in Rain Light Rain
7:57 AM 35.6 °F 31.7 °F 30.2 °F 81% 30.20 in 10.0 mi WSW 4.6 mph - 0.00 in   Mostly Cloudy
8:53 AM 37.9 °F 33.5 °F 30.0 °F 73% 30.24 in 10.0 mi West 5.8 mph - 0.00 in   Mostly Cloudy
9:53 AM 39.9 °F 35.1 °F 28.9 °F 65% 30.24 in 10.0 mi NW 6.9 mph - N/A   Mostly Cloudy
10:53 AM 42.1 °F 36.6 °F 27.0 °F 55% 30.24 in 10.0 mi WNW 9.2 mph - N/A   Mostly Cloudy
11:53 AM 45.0 °F 40.6 °F 26.1 °F 48% 30.23 in 10.0 mi WNW 8.1 mph 18.4 mph N/A   Mostly Cloudy
12:53 PM 46.9 °F - 26.1 °F 44% 30.21 in 10.0 mi NW 11.5 mph 17.3 mph N/A   Scattered Clouds
1:53 PM 50.0 °F - 26.1 °F 39% 30.19 in 10.0 mi NW 12.7 mph 21.9 mph N/A   Scattered Clouds
2:53 PM 48.0 °F - 27.0 °F 44% 30.18 in 10.0 mi Variable 5.8 mph - N/A   Scattered Clouds
3:53 PM 46.0 °F 39.0 °F 30.0 °F 54% 30.17 in 10.0 mi SW 17.3 mph - N/A   Mostly Cloudy
4:53 PM 46.0 °F 41.0 °F 30.9 °F 56% 30.17 in 10.0 mi SW 10.4 mph - N/A   Scattered Clouds
5:53 PM 46.0 °F 40.2 °F 30.9 °F 56% 30.17 in 10.0 mi SW 12.7 mph - N/A   Scattered Clouds
6:53 PM 44.1 °F 37.7 °F 30.0 °F 58% 30.18 in 10.0 mi SW 12.7 mph - N/A   Partly Cloudy
7:53 PM 39.0 °F 31.8 °F 30.0 °F 70% 30.19 in 10.0 mi SW 11.5 mph - N/A   Partly Cloudy
8:53 PM 35.1 °F 30.1 °F 30.0 °F 82% 30.20 in 10.0 mi SW 5.8 mph - N/A   Clear
9:53 PM 33.1 °F 28.7 °F 28.0 °F 82% 30.22 in 10.0 mi SSW 4.6 mph - N/A   Clear
10:53 PM 32.0 °F 28.7 °F 28.0 °F 85% 30.22 in 10.0 mi SSW 3.5 mph - N/A   Clear
11:53 PM 32.0 °F - 28.0 °F 85% 30.22 in 9.0 mi Calm Calm - N/A   Clear